Weather History for Grafton, ND

Change the Weather History Date:

Thursday, January 10, 2013

  Actual Average Record
Temperature  
Mean Temperature 31 °F -  
Max Temperature 39 °F 10 °F 50 °F (1990)
Min Temperature 23 °F -9 °F -34 °F (1974)
Degree Days  
Heating Degree Days 34    
Moisture  
Dew Point 27 °F    
Average Humidity 83    
Maximum Humidity 100    
Minimum Humidity 65    
Precipitation  
Precipitation 0.00 in - - ()
Sea Level Pressure  
Sea Level Pressure 29.71 in    
Wind  
Wind Speed 15 mph (South)    
Max Wind Speed 23 mph    
Max Gust Speed 29 mph    
Visibility 9 miles    
Events Rain    
Averages and records for this station are not official NWS values.
T = Trace of Precipitation, MM = Missing Value Source: NWS Daily Summary

Daily Weather History Graph

Daily Weather History Graph

Search for Another Location

Airport:

Trip Planner

Search our weather history database for the weather conditions in past years. The results will help you decide how hot, cold, wet, or windy it might be!

Date:

Astronomy

Jan. 10, 2013 Rise Set
Actual Time 8:18 AM CST 4:56 PM CST
Civil Twilight 7:42 AM CST 5:31 PM CST
Nautical Twilight 7:03 AM CST 6:11 PM CST
Astronomical Twilight 6:25 AM CST 6:48 PM CST
Moon 6:59 AM CST (1/10) 4:06 PM CST (1/10)
Length of Visible Light 9h 49m
Length of Day
8h 37m
Waning Crescent, 2% of the Moon is Illuminated
Jan 10
Waning Crescent
Jan 11
New
Jan 18
First Quarter
Jan 26
Full
Feb 3
Last Quarter

Hourly Weather History & Observations

Time (CST) Temp. Windchill Dew Point Humidity Pressure Visibility Wind Dir Wind Speed Gust Speed Precip Events Conditions
12:15 AM 23.0 °F 11.7 °F 17.6 °F 80% 29.96 in 10.0 mi South 11.5 mph - N/A   Clear
12:35 AM 23.0 °F 11.1 °F 19.4 °F 86% 29.95 in 10.0 mi South 12.7 mph - N/A   Clear
12:55 AM 23.0 °F 10.1 °F 19.4 °F 86% 29.95 in 10.0 mi South 15.0 mph 19.6 mph N/A   Clear
2:35 AM 24.8 °F 11.5 °F 21.2 °F 86% 29.91 in 10.0 mi South 17.3 mph - N/A   Clear
2:55 AM 26.6 °F 14.7 °F 23.0 °F 86% 29.91 in 10.0 mi South 15.0 mph - N/A   Clear
3:15 AM 24.8 °F 11.9 °F 21.2 °F 86% 29.89 in 10.0 mi SSE 16.1 mph 20.7 mph N/A   Clear
3:35 AM 24.8 °F 12.4 °F 21.2 °F 86% 29.88 in 10.0 mi SSE 15.0 mph - N/A   Clear
3:55 AM 24.8 °F 11.5 °F 21.2 °F 86% 29.86 in 10.0 mi SSE 17.3 mph - N/A   Clear
4:15 AM 24.8 °F 11.5 °F 21.2 °F 86% 29.85 in 10.0 mi SSE 17.3 mph - N/A   Clear
4:35 AM 24.8 °F 10.7 °F 23.0 °F 93% 29.84 in 10.0 mi SSE 19.6 mph - N/A   Clear
4:55 AM 24.8 °F 11.1 °F 23.0 °F 93% 29.82 in 10.0 mi South 18.4 mph 21.9 mph N/A   Clear
5:15 AM 26.6 °F 13.1 °F 23.0 °F 86% 29.80 in 10.0 mi South 19.6 mph 24.2 mph N/A   Clear
5:35 AM 26.6 °F 13.8 °F 23.0 °F 86% 29.79 in 10.0 mi South 17.3 mph - N/A   Clear
6:35 AM 26.6 °F 13.8 °F 23.0 °F 86% 29.76 in 10.0 mi South 17.3 mph 24.2 mph N/A   Clear
6:55 AM 26.6 °F 13.8 °F 23.0 °F 86% 29.76 in 10.0 mi South 17.3 mph 21.9 mph N/A   Clear
7:55 AM 28.4 °F 15.4 °F 24.8 °F 86% 29.74 in 10.0 mi South 19.6 mph 25.3 mph N/A   Clear
8:15 AM 28.4 °F 14.4 °F 24.8 °F 86% 29.72 in 10.0 mi South 23.0 mph 27.6 mph N/A   Clear
8:35 AM 28.4 °F 15.1 °F 24.8 °F 86% 29.73 in 10.0 mi South 20.7 mph - N/A   Clear
9:15 AM 30.2 °F 18.1 °F 26.6 °F 86% 29.72 in 10.0 mi South 18.4 mph - N/A   Clear
9:35 AM 32.0 °F 20.5 °F 26.6 °F 80% 29.71 in 10.0 mi South 18.4 mph - N/A   Clear
9:55 AM 32.0 °F 20.5 °F 26.6 °F 80% 29.71 in 10.0 mi South 18.4 mph - N/A   Clear
10:15 AM 32.0 °F 21.2 °F 26.6 °F 80% 29.71 in 10.0 mi South 16.1 mph - N/A   Clear
10:35 AM 35.6 °F 25.5 °F 28.4 °F 75% 29.72 in 10.0 mi South 17.3 mph 24.2 mph N/A   Clear
10:55 AM 37.4 °F 27.2 °F 28.4 °F 70% 29.72 in 10.0 mi South 19.6 mph - N/A   Clear
11:15 AM 37.4 °F 26.9 °F 28.4 °F 70% 29.72 in 10.0 mi South 20.7 mph - N/A   Clear
11:35 AM 37.4 °F 27.2 °F 28.4 °F 70% 29.72 in 10.0 mi South 19.6 mph 26.5 mph N/A   Clear
11:55 AM 37.4 °F 28.2 °F 28.4 °F 70% 29.72 in 10.0 mi SSW 16.1 mph - N/A   Clear
12:15 PM 37.4 °F 27.5 °F 28.4 °F 70% 29.70 in 10.0 mi South 18.4 mph - N/A   Clear
12:35 PM 37.4 °F 27.5 °F 28.4 °F 70% 29.70 in 10.0 mi South 18.4 mph - N/A   Clear
12:55 PM 37.4 °F 27.5 °F 28.4 °F 70% 29.69 in 10.0 mi South 18.4 mph - N/A   Clear
1:15 PM 37.4 °F 27.8 °F 28.4 °F 70% 29.68 in 10.0 mi South 17.3 mph - N/A   Clear
1:35 PM 37.4 °F 27.8 °F 28.4 °F 70% 29.68 in 10.0 mi South 17.3 mph 21.9 mph N/A   Clear
1:55 PM 39.2 °F 31.2 °F 28.4 °F 65% 29.68 in 10.0 mi South 13.8 mph - N/A   Clear
2:15 PM 37.4 °F 29.8 °F 30.2 °F 75% 29.68 in 10.0 mi South 11.5 mph - N/A   Clear
2:35 PM 37.4 °F 29.3 °F 30.2 °F 75% 29.67 in 10.0 mi South 12.7 mph - N/A   Clear
2:55 PM 37.4 °F 29.8 °F 30.2 °F 75% 29.66 in 10.0 mi SSE 11.5 mph - N/A   Clear
3:15 PM 37.4 °F 28.9 °F 30.2 °F 75% 29.67 in 10.0 mi South 13.8 mph - N/A   Clear
3:35 PM 37.4 °F 29.8 °F 30.2 °F 75% 29.67 in 10.0 mi South 11.5 mph - N/A   Clear
3:55 PM 35.6 °F 27.5 °F 32.0 °F 87% 29.67 in 10.0 mi SSE 11.5 mph - N/A   Clear
4:15 PM 35.6 °F 25.5 °F 32.0 °F 87% 29.67 in 10.0 mi SSE 17.3 mph - N/A   Clear
4:35 PM 35.6 °F 25.9 °F 30.2 °F 81% 29.66 in 10.0 mi South 16.1 mph - N/A   Clear
4:55 PM 35.6 °F 26.6 °F 30.2 °F 81% 29.66 in 10.0 mi South 13.8 mph - N/A   Clear
5:15 PM 35.6 °F 25.2 °F 28.4 °F 75% 29.64 in 10.0 mi South 18.4 mph 26.5 mph N/A   Clear
5:35 PM 35.6 °F 24.5 °F 28.4 °F 75% 29.64 in 10.0 mi South 20.7 mph 28.8 mph N/A   Partly Cloudy
5:55 PM 35.6 °F 25.5 °F 28.4 °F 75% 29.65 in 10.0 mi South 17.3 mph 25.3 mph N/A   Mostly Cloudy
6:15 PM 35.6 °F 26.2 °F 28.4 °F 75% 29.65 in 10.0 mi South 15.0 mph - N/A   Overcast
6:35 PM 35.6 °F 25.9 °F 28.4 °F 75% 29.64 in 10.0 mi South 16.1 mph 21.9 mph N/A   Overcast
6:55 PM 35.6 °F 25.2 °F 28.4 °F 75% 29.64 in 10.0 mi South 18.4 mph - N/A   Overcast
7:15 PM 35.6 °F 26.2 °F 28.4 °F 75% 29.63 in 10.0 mi SSE 15.0 mph - N/A   Overcast
7:35 PM 35.6 °F 26.2 °F 28.4 °F 75% 29.63 in 10.0 mi SSE 15.0 mph - N/A   Overcast
7:55 PM 35.6 °F 25.9 °F 28.4 °F 75% 29.62 in 10.0 mi South 16.1 mph 21.9 mph N/A   Overcast
8:15 PM 33.8 °F 25.8 °F 28.4 °F 81% 29.62 in 10.0 mi SSE 10.4 mph - N/A   Overcast
8:35 PM 32.0 °F 23.6 °F 30.2 °F 93% 29.61 in 4.0 mi South 10.4 mph - N/A   Overcast
8:55 PM 32.0 °F 22.5 °F 32.0 °F 100% 29.60 in 2.5 mi SSE 12.7 mph - N/A Rain Light Rain
9:15 PM 32.0 °F 24.2 °F 32.0 °F 100% 29.60 in 2.5 mi South 9.2 mph - N/A   Overcast
9:35 PM 32.0 °F 27.5 °F 32.0 °F 100% 29.61 in 2.0 mi South 4.6 mph - N/A Rain Light Rain
9:55 PM 32.0 °F 27.5 °F 32.0 °F 100% 29.61 in 2.0 mi South 4.6 mph - N/A   Overcast
10:15 PM 32.0 °F 28.7 °F 32.0 °F 100% 29.61 in 1.0 mi SE 3.5 mph - N/A Rain Light Rain
10:35 PM 32.0 °F 24.2 °F 32.0 °F 100% 29.59 in 1.8 mi SSE 9.2 mph - N/A   Overcast
10:55 PM 32.0 °F 24.8 °F 32.0 °F 100% 29.59 in 3.0 mi South 8.1 mph - N/A   Overcast
11:15 PM 32.0 °F 24.8 °F 32.0 °F 100% 29.59 in 2.0 mi SSE 8.1 mph - N/A   Overcast
11:35 PM 32.0 °F 24.8 °F 32.0 °F 100% 29.58 in 2.0 mi SSE 8.1 mph - N/A   Overcast
11:55 PM 32.0 °F 25.6 °F 32.0 °F 100% 29.58 in 2.0 mi SSE 6.9 mph - N/A   Overcast